Tampa Macdill AFB, FL

2:37 AM EDT on May 30, 2017 (GMT -0400)
MacDill Air Force Base

Weather History for KMCF - November, 2013

Change the Weather History Date:

Thursday, November 28, 2013

  Actual Average Record
Temperature  
Mean Temperature 51 °F -  
Max Temperature 66 °F 73 °F 83 °F (2007)
Min Temperature 36 °F 54 °F 36 °F (2013)
Degree Days  
Heating Degree Days 14    
Growing Degree Days 1 (Base 50)    
Moisture  
Dew Point 42 °F    
Average Humidity 72    
Maximum Humidity 91    
Minimum Humidity 40    
Precipitation  
Precipitation 0.00 in - - ()
Sea Level Pressure  
Sea Level Pressure 30.31 in    
Wind  
Wind Speed 8 mph (NE)    
Max Wind Speed 13 mph    
Max Gust Speed 20 mph    
Visibility 10 miles    
Events      
Averages and records for this station are not official NWS values.
T = Trace of Precipitation, MM = Missing Value Source: NWS Daily Summary

Daily Weather History Graph

Daily Weather History Graph

Search for Another Location

Airport or City:

Trip Planner

Search our weather history database for the weather conditions in past years. The results will help you decide how hot, cold, wet, or windy it might be!

Date:

Astronomy

Nov. 28, 2013 Rise Set
Actual Time 7:01 AM EST 5:34 PM EST
Civil Twilight 6:36 AM EST 5:59 PM EST
Nautical Twilight 6:07 AM EST 6:28 PM EST
Astronomical Twilight 5:39 AM EST 6:56 PM EST
Moon 2:25 AM EST (11/28) 2:23 PM EST (11/28)
Length of Visible Light 11h 23m
Length of Day
10h 32m
Waning Crescent, 22% of the Moon is Illuminated
Nov 28
Waning Crescent
Dec 2
New
Dec 9
First Quarter
Dec 17
Full
Dec 25
Last Quarter

Hourly Weather History & Observations

Time (EST) Temp. Windchill Dew Point Humidity Pressure Visibility Wind Dir Wind Speed Gust Speed Precip Events Conditions
12:58 AM 42.4 °F 36.5 °F 34.7 °F 74% 30.24 in 10.0 mi NE 10.4 mph 19.6 mph N/A   Clear
1:58 AM 41.7 °F 37.3 °F 34.7 °F 76% 30.24 in 10.0 mi NE 6.9 mph - N/A   Clear
2:58 AM 40.3 °F 35.5 °F 34.3 °F 79% 30.25 in 10.0 mi NE 6.9 mph - N/A   Clear
3:58 AM 39.4 °F 35.2 °F 33.6 °F 80% 30.27 in 10.0 mi NE 5.8 mph - N/A   Clear
4:58 AM 37.9 °F 32.7 °F 33.3 °F 83% 30.29 in 10.0 mi NNE 6.9 mph - N/A   Clear
5:58 AM 37.2 °F 31.9 °F 33.1 °F 85% 30.30 in 10.0 mi NE 6.9 mph - N/A   Clear
6:58 AM 36.1 °F 29.3 °F 32.7 °F 87% 30.31 in 10.0 mi NNE 9.2 mph - N/A   Clear
7:58 AM 38.5 °F 32.1 °F 34.0 °F 84% 30.33 in 10.0 mi NNE 9.2 mph - N/A   Clear
8:58 AM 44.2 °F 39.7 °F 34.3 °F 68% 30.35 in 10.0 mi NE 8.1 mph - N/A   Clear
9:58 AM 50.2 °F - 38.7 °F 65% 30.37 in 10.0 mi NNE 8.1 mph - N/A   Clear
10:58 AM 55.0 °F - 41.5 °F 60% 30.36 in 10.0 mi ENE 8.1 mph - N/A   Clear
11:58 AM 58.5 °F - 43.2 °F 57% 30.33 in 10.0 mi East 8.1 mph - N/A   Clear
12:58 PM 61.3 °F - 44.4 °F 54% 30.30 in 10.0 mi NE 8.1 mph - N/A   Clear
1:58 PM 65.5 °F - 40.6 °F 40% 30.27 in 10.0 mi NE 9.2 mph - N/A   Clear
2:58 PM 65.8 °F - 44.1 °F 45% 30.26 in 10.0 mi ENE 9.2 mph - N/A   Clear
3:58 PM 66.2 °F - 46.6 °F 49% 30.28 in 10.0 mi NE 8.1 mph - N/A   Clear
4:58 PM 63.7 °F - 48.6 °F 58% 30.30 in 10.0 mi NE 5.8 mph - N/A   Clear
5:58 PM 57.9 °F - 48.9 °F 72% 30.32 in 10.0 mi NNE 5.8 mph - N/A   Clear
6:58 PM 55.8 °F - 49.1 °F 78% 30.33 in 10.0 mi NNE 5.8 mph - N/A   Clear
7:58 PM 54.7 °F - 49.6 °F 83% 30.35 in 10.0 mi NE 8.1 mph - N/A   Clear
8:58 PM 54.9 °F - 49.8 °F 83% 30.35 in 10.0 mi ENE 12.7 mph 18.4 mph N/A   Clear
9:58 PM 53.8 °F - 49.8 °F 86% 30.35 in 10.0 mi ENE 12.7 mph - N/A   Clear
10:58 PM 52.5 °F - 49.5 °F 89% 30.35 in 10.0 mi NE 8.1 mph - N/A   Clear
11:58 PM 52.2 °F - 49.5 °F 91% 30.35 in 10.0 mi NE 6.9 mph - N/A   Clear